Fort Myers, FL

3:44 AM EDT on May 29, 2017 (GMT -0400)
Page

Weather History for KFMY - June, 2013

Change the Weather History Date:

Saturday, June 15, 2013

  Actual Average Record
Temperature  
Mean Temperature 83 °F 83 °F  
Max Temperature 91 °F 92 °F 101 °F (1981)
Min Temperature 74 °F 74 °F 64 °F (1950)
Degree Days  
Heating Degree Days 0 0  
Month to date heating degree days 0 0  
Since 1 June heating degree days 0 0  
Since 1 July heating degree days 201 287  
Cooling Degree Days 18 18  
Month to date cooling degree days 240 258  
Year to date cooling degree days 1378 1324  
Since 1 June cooling degree days 240 258  
Growing Degree Days 32 (Base 50)    
Moisture  
Dew Point 73 °F    
Average Humidity 74    
Maximum Humidity 94    
Minimum Humidity 52    
Precipitation  
Precipitation 0.00 in 0.38 in 3.37 in (1936)
Month to date precipitation 4.53 4.48  
Year to date precipitation 14.69 16.28  
Sea Level Pressure  
Sea Level Pressure 30.00 in    
Wind  
Wind Speed 4 mph (WNW)    
Max Wind Speed 15 mph    
Max Gust Speed 20 mph    
Visibility 10 miles    
Events      
T = Trace of Precipitation, MM = Missing Value Source: NWS Daily Summary

Daily Weather History Graph

Daily Weather History Graph

Search for Another Location

Airport or City:

Trip Planner

Search our weather history database for the weather conditions in past years. The results will help you decide how hot, cold, wet, or windy it might be!

Date:

Astronomy

Jun. 15, 2013 Rise Set
Actual Time 6:33 AM EDT 8:22 PM EDT
Civil Twilight 6:07 AM EDT 8:48 PM EDT
Nautical Twilight 5:36 AM EDT 9:20 PM EDT
Astronomical Twilight 5:02 AM EDT 9:53 PM EDT
Moon 12:34 PM EDT (6/15) 12:26 AM EDT (6/15)
Length of Visible Light 14h 40m
Length of Day
13h 48m
Waxing Crescent, 39% of the Moon is Illuminated
Jun 15
Waxing Crescent
Jun 16
First Quarter
Jun 23
Full
Jun 30
Last Quarter
Jul 8
New

Hourly Weather History & Observations

Time (EDT) Temp. Heat Index Dew Point Humidity Pressure Visibility Wind Dir Wind Speed Gust Speed Precip Events Conditions
12:53 AM 78.1 °F - 73.0 °F 84% 29.96 in 10.0 mi West 4.6 mph - N/A   Clear
1:53 AM 79.0 °F - 73.0 °F 82% 29.96 in 10.0 mi WSW 3.5 mph - N/A   Clear
2:53 AM 78.1 °F - 73.0 °F 84% 29.96 in 10.0 mi Calm Calm - N/A   Partly Cloudy
3:14 AM 75.2 °F - 73.4 °F 94% 29.94 in 10.0 mi Calm Calm - N/A   Mostly Cloudy
3:22 AM 75.2 °F - 73.4 °F 94% 29.94 in 10.0 mi Calm Calm - N/A   Scattered Clouds
3:53 AM 77.0 °F - 73.0 °F 88% 29.95 in 10.0 mi Calm Calm - N/A   Partly Cloudy
4:53 AM 75.9 °F - 73.0 °F 91% 29.96 in 10.0 mi Calm Calm - N/A   Clear
5:53 AM 75.9 °F - 73.0 °F 91% 29.98 in 10.0 mi Calm Calm - N/A   Clear
6:53 AM 75.0 °F - 73.0 °F 94% 29.99 in 10.0 mi Calm Calm - N/A   Partly Cloudy
7:53 AM 78.1 °F - 73.9 °F 87% 30.01 in 10.0 mi Calm Calm - N/A   Clear
8:53 AM 82.0 °F 87.4 °F 73.0 °F 74% 30.02 in 10.0 mi WSW 4.6 mph - N/A   Clear
9:53 AM 82.9 °F 88.0 °F 72.0 °F 69% 30.03 in 10.0 mi NW 3.5 mph - N/A   Scattered Clouds
10:53 AM 86.0 °F 92.2 °F 72.0 °F 63% 30.03 in 10.0 mi NNW 3.5 mph - N/A   Partly Cloudy
11:53 AM 86.0 °F 91.5 °F 71.1 °F 61% 30.04 in 10.0 mi Calm Calm - N/A   Mostly Cloudy
12:53 PM 90.0 °F 96.9 °F 72.0 °F 55% 30.04 in 10.0 mi Variable 4.6 mph - N/A   Partly Cloudy
1:53 PM 89.1 °F 94.1 °F 70.0 °F 53% 30.02 in 10.0 mi Calm Calm - N/A   Partly Cloudy
2:53 PM 90.0 °F 97.9 °F 73.0 °F 57% 30.00 in 10.0 mi West 8.1 mph - N/A   Mostly Cloudy
3:53 PM 89.1 °F 99.1 °F 75.0 °F 63% 29.99 in 10.0 mi West 11.5 mph - N/A   Partly Cloudy
4:53 PM 90.0 °F 99.0 °F 73.9 °F 59% 29.99 in 10.0 mi WNW 10.4 mph - N/A   Mostly Cloudy
5:53 PM 88.0 °F 95.6 °F 73.0 °F 61% 29.98 in 10.0 mi WSW 11.5 mph - N/A   Mostly Cloudy
6:53 PM 87.1 °F 94.5 °F 73.0 °F 63% 29.99 in 10.0 mi WNW 10.4 mph - N/A   Partly Cloudy
7:53 PM 84.0 °F 90.2 °F 73.0 °F 69% 30.01 in 10.0 mi West 11.5 mph - N/A   Overcast
8:53 PM 82.9 °F 88.8 °F 73.0 °F 72% 30.01 in 10.0 mi NW 9.2 mph - N/A   Partly Cloudy
9:53 PM 82.0 °F 87.4 °F 73.0 °F 74% 30.03 in 10.0 mi NW 4.6 mph - N/A   Partly Cloudy
10:53 PM 82.0 °F 87.4 °F 73.0 °F 74% 30.05 in 10.0 mi NNW 4.6 mph - N/A   Scattered Clouds
11:53 PM 82.0 °F 87.4 °F 73.0 °F 74% 30.05 in 10.0 mi Calm Calm - N/A   Overcast